Weather home | Your neighborhood | Marine | Radar | Hurricane | Almanac

Daily weather history


Statistical History for Friday, May 19, 2017

Tampa Knight Airport, FL


  Actual Average (KTPA) Record (KTPA)
Temperature
Mean Temperature -  
Max Temperature 85 °F 98 °F (2017)
Min Temperature 68 °F 56 °F (1979)
Cooling Degree Days    
Growing Degree Days 38 (Base - )  
Moisture
Dew Point   
Average Humidity    
Maximum Humidity    
Minimum Humidity    
Precipitation
Precipitation - - ()
Wind
Wind Speed   
Max Wind Speed   
Max Gust Speed   
Visibility   
Events   
Averages and records for this station are not official NWS values.
Key: T is trace of precipitation, MM is missing value
Source: NWS Daily Summary
Seasonal Weather Averages
Time(EDT)TemperatureDew PointHumidity Sea Level Pressure Visibility Wind DirectionWind SpeedGust SpeedPrecipitationEventsConditions
12:15 AM 80.6 °F 73.4 °F 79% 30.06 in 10.0 miles East 12.7 mph 18.4 mph N/A   Overcast
12:35 AM 80.6 °F 73.4 °F 79% 30.05 in 10.0 miles East 11.5 mph - N/A   Overcast
12:55 AM 80.6 °F 73.4 °F 79% 30.05 in 10.0 miles East 15.0 mph 20.7 mph N/A   Mostly Cloudy
1:15 AM 78.8 °F 73.4 °F 83% 30.04 in 10.0 miles East 13.8 mph - N/A   Mostly Cloudy
1:35 AM 78.8 °F 73.4 °F 83% 30.03 in 10.0 miles East 11.5 mph - N/A   Scattered Clouds
1:55 AM 78.8 °F 73.4 °F 83% 30.03 in 10.0 miles East 11.5 mph 16.1 mph N/A   Scattered Clouds
2:15 AM 78.8 °F 73.4 °F 83% 30.02 in 10.0 miles East 10.4 mph - N/A   Scattered Clouds
2:35 AM 78.8 °F 73.4 °F 83% 30.01 in 10.0 miles East 12.7 mph 16.1 mph N/A   Scattered Clouds
2:55 AM 78.8 °F 73.4 °F 83% 30.00 in 10.0 miles East 8.1 mph - N/A   Scattered Clouds
3:15 AM 78.8 °F 73.4 °F 83% 29.99 in 10.0 miles East 10.4 mph 17.3 mph N/A   Scattered Clouds
3:35 AM 78.8 °F 73.4 °F 83% 29.98 in 10.0 miles East 10.4 mph - N/A   Scattered Clouds
3:55 AM 78.8 °F 73.4 °F 83% 29.98 in 10.0 miles East 9.2 mph 17.3 mph N/A   Scattered Clouds
4:15 AM 78.8 °F 73.4 °F 83% 29.98 in 10.0 miles East 11.5 mph 17.3 mph N/A   Mostly Cloudy
4:35 AM 78.8 °F 73.4 °F 83% 29.99 in 10.0 miles East 12.7 mph 19.6 mph N/A   Mostly Cloudy
4:55 AM 78.8 °F 73.4 °F 83% 29.99 in 10.0 miles East 10.4 mph - N/A   Mostly Cloudy
5:15 AM 78.8 °F 73.4 °F 83% 30.00 in 10.0 miles East 10.4 mph - N/A   Mostly Cloudy
5:35 AM 78.8 °F 73.4 °F 83% 30.00 in 10.0 miles East 10.4 mph 16.1 mph N/A   Mostly Cloudy
5:55 AM 78.8 °F 73.4 °F 83% 30.00 in 10.0 miles East 9.2 mph - N/A   Overcast
6:15 AM 77.0 °F 73.4 °F 89% 30.01 in 10.0 miles East 8.1 mph - N/A   Mostly Cloudy
6:35 AM 77.0 °F 73.4 °F 89% 30.01 in 10.0 miles East 8.1 mph 17.3 mph N/A   Overcast
6:55 AM 77.0 °F 75.2 °F 94% 30.03 in 10.0 miles East 8.1 mph - N/A   Overcast
7:15 AM 78.8 °F 75.2 °F 89% 30.04 in 10.0 miles East 10.4 mph - N/A   Overcast
7:35 AM 78.8 °F 75.2 °F 89% 30.04 in 10.0 miles East 9.2 mph - N/A   Overcast
7:55 AM 80.6 °F 75.2 °F 84% 30.04 in 10.0 miles East 10.4 mph - N/A   Overcast
8:15 AM 80.6 °F 77.0 °F 89% 30.04 in 10.0 miles East 11.5 mph 16.1 mph N/A   Overcast
8:35 AM 82.4 °F 77.0 °F 84% 30.04 in 10.0 miles ESE 12.7 mph - N/A   Overcast
8:55 AM 82.4 °F 77.0 °F 84% 30.05 in 10.0 miles ESE 11.5 mph - N/A   Mostly Cloudy
9:15 AM 84.2 °F 75.2 °F 74% 30.05 in 10.0 miles ESE 10.4 mph - N/A   Mostly Cloudy
9:35 AM 86.0 °F 75.2 °F 70% 30.05 in 10.0 miles ESE 11.5 mph 18.4 mph N/A   Overcast
9:55 AM 86.0 °F 75.2 °F 70% 30.05 in 10.0 miles SE 11.5 mph 18.4 mph N/A   Overcast
10:15 AM 87.8 °F 75.2 °F 66% 30.05 in 10.0 miles SE 12.7 mph - N/A   Mostly Cloudy
10:35 AM 87.8 °F 75.2 °F 66% 30.05 in 10.0 miles SE 11.5 mph - N/A   Scattered Clouds
10:55 AM 89.6 °F 73.4 °F 59% 30.05 in 10.0 miles ESE 9.2 mph - N/A   Scattered Clouds
11:15 AM 89.6 °F 73.4 °F 59% 30.04 in 10.0 miles SE 10.4 mph - N/A   Scattered Clouds
11:35 AM 89.6 °F 73.4 °F 59% 30.04 in 10.0 miles SE 10.4 mph - N/A   Mostly Cloudy
11:55 AM 91.4 °F 73.4 °F 55% 30.04 in 10.0 miles SSE 12.7 mph - N/A   Mostly Cloudy
12:15 PM 91.4 °F 75.2 °F 59% 30.04 in 10.0 miles SE 10.4 mph - N/A   Mostly Cloudy
12:35 PM 91.4 °F 73.4 °F 55% 30.03 in 10.0 miles SE 9.2 mph - N/A   Scattered Clouds
12:55 PM 93.2 °F 73.4 °F 52% 30.02 in 10.0 miles SE 12.7 mph - N/A   Mostly Cloudy
1:15 PM 95.0 °F 73.4 °F 49% 30.01 in 10.0 miles SE 12.7 mph 17.3 mph N/A   Scattered Clouds
1:35 PM 95.0 °F 71.6 °F 47% 29.99 in 10.0 miles SE 12.7 mph 17.3 mph N/A   Scattered Clouds
1:55 PM 96.8 °F 71.6 °F 44% 29.98 in 10.0 miles SSE 11.5 mph - N/A   Scattered Clouds
2:15 PM 96.8 °F 71.6 °F 44% 29.98 in 10.0 miles ESE 11.5 mph 20.7 mph N/A   Clear
2:35 PM 96.8 °F 71.6 °F 44% 29.97 in 10.0 miles ESE 5.8 mph - N/A   Scattered Clouds
2:55 PM 96.8 °F 69.8 °F 41% 29.96 in 10.0 miles SSE 9.2 mph 16.1 mph N/A   Mostly Cloudy
3:15 PM 98.6 °F 69.8 °F 39% 29.96 in 10.0 miles SSE 11.5 mph 17.3 mph N/A   Scattered Clouds
3:35 PM 96.8 °F 69.8 °F 41% 29.95 in 10.0 miles SSE 10.4 mph - N/A   Scattered Clouds
3:55 PM 98.6 °F 69.8 °F 39% 29.94 in 10.0 miles SSE 9.2 mph 18.4 mph N/A   Scattered Clouds
4:15 PM 98.6 °F 68.0 °F 37% 29.93 in 10.0 miles SE 11.5 mph - N/A   Scattered Clouds
4:35 PM 98.6 °F 68.0 °F 37% 29.93 in 10.0 miles SSE 9.2 mph - N/A   Scattered Clouds
4:55 PM 98.6 °F 68.0 °F 37% 29.93 in 10.0 miles ESE 10.4 mph 17.3 mph N/A   Mostly Cloudy
5:15 PM 95.0 °F 73.4 °F 49% 29.94 in 10.0 miles SSW 12.7 mph 16.1 mph N/A   Overcast
5:35 PM 87.8 °F 77.0 °F 70% 29.95 in 10.0 miles SW 23.0 mph 32.2 mph N/A   Overcast
5:55 PM 87.8 °F 77.0 °F 70% 29.94 in 10.0 miles WSW 10.4 mph 20.7 mph N/A Rain Light Rain
6:15 PM 82.4 °F 77.0 °F 84% 29.98 in 10.0 miles ESE 15.0 mph - N/A Rain Rain
6:35 PM 77.0 °F 75.2 °F 94% 29.97 in 1.2 miles WSW 5.8 mph - 0.38 in Rain Heavy Rain
6:55 PM 78.8 °F 77.0 °F 94% 29.97 in 7.0 miles SSE 3.5 mph - 0.50 in Rain Light Rain
7:15 PM 80.6 °F 77.0 °F 89% 29.98 in 10.0 miles Calm Calm - N/A   Overcast
7:35 PM 78.8 °F 77.0 °F 94% 30.01 in 1.5 miles Calm Calm - 0.43 in Rain Heavy Rain
7:55 PM 78.8 °F 77.0 °F 94% 30.00 in 4.0 miles NNW 3.5 mph - 0.64 in Rain Rain
8:15 PM 78.8 °F 77.0 °F 94% 30.02 in 5.0 miles South 10.4 mph - 0.03 in Rain Rain
8:35 PM 78.8 °F 77.0 °F 94% 30.02 in 7.0 miles WSW 5.8 mph 9.2 mph 0.05 in Rain Light Rain
8:55 PM 78.8 °F 77.0 °F 94% 30.02 in 7.0 miles WSW 3.5 mph - 0.09 in Rain Light Rain
9:15 PM 78.8 °F 77.0 °F 94% 30.02 in 10.0 miles Calm Calm - N/A   Mostly Cloudy
9:35 PM 78.8 °F 77.0 °F 94% 30.02 in 10.0 miles Calm Calm - N/A   Mostly Cloudy
9:55 PM 78.8 °F 77.0 °F 94% 30.03 in 10.0 miles Calm Calm - N/A   Mostly Cloudy
10:15 PM 78.8 °F 77.0 °F 94% 30.04 in 10.0 miles Calm Calm - N/A   Mostly Cloudy
10:35 PM 78.8 °F 77.0 °F 94% 30.04 in 10.0 miles Calm Calm - N/A   Overcast
10:55 PM 78.8 °F 77.0 °F 94% 30.04 in 10.0 miles Calm Calm - N/A   Overcast
11:15 PM 78.8 °F 77.0 °F 94% 30.03 in 10.0 miles East 3.5 mph - N/A   Overcast
11:35 PM 78.8 °F 77.0 °F 94% 30.03 in 10.0 miles ENE 5.8 mph - N/A   Mostly Cloudy
11:55 PM 78.8 °F 77.0 °F 94% 30.03 in 10.0 miles East 6.9 mph - N/A   Overcast
ADVERTISEMENT
Enter city or zip code to search weather conditions:


  • 490 First Avenue South
  • St. Petersburg, FL 33701
  • 727-893-8111